Skip Page Navigation
NASA JPL Caltech
NASA Logo - Jet Propulsion Laboratory + View the NASA Portal
+ Near-Earth Object (NEO) Program
Search JPL
JPL Home Earth Solar System Stars & Galaxies Technology
JPL Solar System Dynamics
BODIES ORBITS EPHEMERIDES TOOLS PHYSICAL DATA DISCOVERY FAQ SITE MAP
JPL Small-Body Database Browser
Search: [ help ]  
1007 Pawlowia (1923 OX)
Classification: Main-belt Asteroid          SPK-ID: 2001007
Ephemeris | Orbit Diagram | Orbital Elements | Physical Parameters | Discovery Circumstances | Close-Approach Data ]

[ show orbit diagram ]
Orbital Elements at Epoch 2456800.5 (2014-May-23.0) TDB
Reference: JPL 13 (heliocentric ecliptic J2000)
 Element Value Uncertainty (1-sigma)   Units 
e .1114506946144019 4.3168e-08  
a 2.707296211145978 1.1953e-08 AU
q 2.40556616788682 1.1514e-07 AU
i 2.543095401647876 4.5001e-06 deg
node 307.1346016157412 0.00010756 deg
peri 77.66351178330264 0.00010922 deg
M 119.2970486230152 1.9407e-05 deg
tp 2456261.325568878575
(2012-Nov-29.82556888)
8.7363e-05 JED
period 1627.054461482007
4.45
1.0776e-05
2.95e-08
d
yr
n .2212587276716559 1.4654e-09 deg/d
Q 3.009026254405136 1.3286e-08 AU
  Orbit Determination Parameters
   # obs. used (total)      1707  
   data-arc span      33107 days (90.64 yr)  
   first obs. used      1923-10-30  
   last obs. used      2014-06-21  
   planetary ephem.      DE431  
   SB-pert. ephem.      SB431-BIG16  
   condition code      0  
   fit RMS      .48846  
   data source      ORB  
   producer      Otto Matic  
   solution date      2014-Jul-14 11:57:28  

Additional Information
 Earth MOID = 1.40943 AU 
 T_jup = 3.354 
[ show covariance matrix ]

Ephemeris | Orbit Diagram | Orbital Elements | Physical Parameters | Discovery Circumstances | Close-Approach Data ]

Physical Parameter Table
Parameter Symbol Value Units Sigma Reference Notes
absolute magnitude H 11.2 mag n/a MPO263353  
rotation period rot_per 8.23 h n/a Asteroid Lightcurve DataBase (Rev. 2013-Sep-12) value is uncertain (e.g., author's best guess); Result based on fragmentary lightcurve(s), may be completely wrong.
Published Reference List:
[Clark, M. (2006) Minor Planet Bul. 33, 53-56.]
SMASSII spectral type spec_B K   n/a EAR-A-5-DDR-TAXONOMY-V4.0 based on a high-resolution spectrum by Xu et al. (1995) or Bus and Binzel (2002)

1007 Pawlowia (1923 OX)          Discovered 1923-Oct-05 by Albitzkij, V. at Simeis (094)
Reference: DISCOVERY.DBLast Updated: 2003-08-29

[ show close-approach data ]
Alternate Designations
 1923 OX = 1934 FE = 1954 UG1 = 1956 AK 
Ephemeris | Orbit Diagram | Orbital Elements | Physical Parameters | Discovery Circumstances | Close-Approach Data ]
ABOUT SSD CREDITS/AWARDS PRIVACY/COPYRIGHT GLOSSARY LINKS
FirstGov 2014-Jul-24 04:23 UT
(server date/time)  
NASA Home Page
Site Manager:   Donald K. Yeomans
Webmaster  Alan B. Chamberlin